Gulfport, MS

3:36 PM CDT on May 29, 2017 (GMT -0500)
Gulfport-Biloxi Regional

Weather History for KGPT - June, 2013

Change the Weather History Date:

Sunday, June 9, 2013

  Actual Average Record
Temperature  
Mean Temperature 80 °F -  
Max Temperature 82 °F 88 °F 97 °F (1963)
Min Temperature 77 °F 71 °F 58 °F (1983)
Cooling Degree Days 14    
Growing Degree Days 30 (Base 50)    
Moisture  
Dew Point 72 °F    
Average Humidity 78    
Maximum Humidity 89    
Minimum Humidity 71    
Precipitation  
Precipitation 0.28 in - - ()
Sea Level Pressure  
Sea Level Pressure 29.96 in    
Wind  
Wind Speed 9 mph (SSE)    
Max Wind Speed 18 mph    
Max Gust Speed 29 mph    
Visibility 9 miles    
Events Rain    
Averages and records for this station are not official NWS values.
T = Trace of Precipitation, MM = Missing Value Source: NWS Daily Summary

Daily Weather History Graph

Daily Weather History Graph

Search for Another Location

Airport or City:

Trip Planner

Search our weather history database for the weather conditions in past years. The results will help you decide how hot, cold, wet, or windy it might be!

Date:

Astronomy

Jun. 09, 2013 Rise Set
Actual Time 5:53 AM CDT 7:57 PM CDT
Civil Twilight 5:26 AM CDT 8:25 PM CDT
Nautical Twilight 4:52 AM CDT 8:58 PM CDT
Astronomical Twilight 4:17 AM CDT 9:34 PM CDT
Moon 6:46 AM CDT (6/9) 8:49 PM CDT (6/9)
Length of Visible Light 14h 59m
Length of Day
14h 04m
New Moon, 1% of the Moon is Illuminated
Jun 9
New Moon
Jun 16
First Quarter
Jun 23
Full
Jun 29
Last Quarter
Jul 8
New

Hourly Weather History & Observations

Time (CDT) Temp. Heat Index Dew Point Humidity Pressure Visibility Wind Dir Wind Speed Gust Speed Precip Events Conditions
12:53 AM 77.0 °F - 69.1 °F 76% 29.98 in 10.0 mi ESE 5.8 mph - N/A   Scattered Clouds
1:53 AM 78.1 °F - 69.1 °F 74% 29.96 in 10.0 mi ESE 13.8 mph 20.7 mph N/A   Clear
2:53 AM 78.1 °F - 71.1 °F 79% 29.96 in 10.0 mi SE 13.8 mph - N/A   Clear
3:53 AM 80.1 °F 84.2 °F 73.0 °F 79% 29.96 in 10.0 mi SE 15.0 mph 20.7 mph N/A   Clear
4:53 AM 80.1 °F 83.8 °F 72.0 °F 76% 29.96 in 10.0 mi SE 11.5 mph - 0.00 in   Partly Cloudy
5:53 AM 80.1 °F 84.2 °F 73.0 °F 79% 29.97 in 10.0 mi SE 9.2 mph - 0.01 in   Scattered Clouds
6:53 AM 77.0 °F - 73.0 °F 88% 29.97 in 5.0 mi Calm Calm - 0.09 in Rain Rain
7:53 AM 77.0 °F - 72.0 °F 84% 29.99 in 8.0 mi ESE 8.1 mph - 0.11 in   Mostly Cloudy
8:53 AM 78.1 °F - 73.0 °F 84% 29.98 in 10.0 mi SE 5.8 mph - N/A   Mostly Cloudy
9:53 AM 81.0 °F 85.8 °F 73.0 °F 77% 29.98 in 10.0 mi SSE 8.1 mph - 0.00 in   Partly Cloudy
10:53 AM 82.9 °F 89.4 °F 73.9 °F 74% 29.97 in 10.0 mi SE 9.2 mph - N/A   Scattered Clouds
11:53 AM 82.0 °F 86.7 °F 72.0 °F 71% 29.99 in 10.0 mi ESE 10.4 mph - N/A   Scattered Clouds
12:53 PM 80.1 °F 84.5 °F 73.9 °F 81% 29.99 in 8.0 mi SE 17.3 mph 25.3 mph 0.01 in Rain Light Rain
1:09 PM 77.0 °F - 73.4 °F 89% 29.98 in 2.0 mi SSE 18.4 mph 28.8 mph 0.06 in Rain Rain
1:25 PM 78.8 °F - 73.4 °F 83% 29.97 in 8.0 mi SSE 13.8 mph - 0.06 in Rain Light Rain
1:40 PM 80.6 °F 85.4 °F 73.4 °F 79% 29.94 in 10.0 mi SSE 11.5 mph - 0.06 in   Scattered Clouds
1:53 PM 81.0 °F 84.9 °F 71.1 °F 72% 29.95 in 10.0 mi South 6.9 mph - 0.06 in   Partly Cloudy
2:23 PM 78.8 °F - 71.6 °F 78% 29.96 in 10.0 mi South 15.0 mph 21.9 mph N/A   Overcast
2:53 PM 79.0 °F - 70.0 °F 74% 29.96 in 10.0 mi South 8.1 mph - N/A   Mostly Cloudy
3:53 PM 81.0 °F 85.2 °F 72.0 °F 74% 29.95 in 10.0 mi SW 4.6 mph - N/A   Mostly Cloudy
4:00 PM 80.6 °F 85.4 °F 73.4 °F 79% 29.94 in 10.0 mi Variable 5.8 mph - N/A   Mostly Cloudy
4:53 PM 81.0 °F 85.2 °F 72.0 °F 74% 29.94 in 10.0 mi Calm Calm - 0.00 in Rain Light Rain
5:48 PM 80.6 °F 85.4 °F 73.4 °F 79% 29.93 in 10.0 mi South 8.1 mph - 0.00 in   Overcast
5:53 PM 80.1 °F 84.2 °F 73.0 °F 79% 29.93 in 10.0 mi SSE 8.1 mph - 0.00 in   Overcast
6:23 PM 80.6 °F 84.6 °F 71.6 °F 74% 29.93 in 10.0 mi South 8.1 mph - 0.00 in   Scattered Clouds
6:53 PM 80.1 °F 83.8 °F 72.0 °F 76% 29.94 in 10.0 mi South 9.2 mph - 0.00 in   Scattered Clouds
7:38 PM 80.6 °F 84.6 °F 71.6 °F 74% 29.94 in 10.0 mi South 5.8 mph - N/A   Scattered Clouds
7:53 PM 80.1 °F 83.8 °F 72.0 °F 76% 29.94 in 10.0 mi South 5.8 mph - N/A   Scattered Clouds
8:53 PM 80.1 °F 83.8 °F 72.0 °F 76% 29.94 in 10.0 mi South 4.6 mph - N/A   Partly Cloudy
9:53 PM 81.0 °F 85.2 °F 72.0 °F 74% 29.98 in 10.0 mi SSW 6.9 mph - N/A   Partly Cloudy
10:53 PM 81.0 °F 85.8 °F 73.0 °F 77% 29.99 in 10.0 mi Variable 3.5 mph - N/A   Partly Cloudy
11:53 PM 81.0 °F 86.2 °F 73.9 °F 79% 29.98 in 10.0 mi SSW 8.1 mph - N/A   Partly Cloudy